Home   Weather   Oshawa   Past weeks

Flag for Canada Past Weather in Oshawa, Ontario, Canada — Yesterday and Last 2 Weeks

Now
68 °F

Clear.


Feels Like: 68 °F
Forecast: 67 / 80 °F
Wind: No wind

Location: Toronto Buttonville

Current Time: Jul 21, 2017 at 1:00:16 am

Latest Report: Jul 21, 2017 at 12:00 am


Visibility: 12 mi

Pressure: 29.91 "Hg

Humidity: 83%

Dew Point: 63 °F

Location of OshawaLocation

Past Weather in Oshawa — Graph

°F

Oshawa Temperature Yesterday

Maximum temperature yesterday: 75 °F (at 6:00 pm)
Minimum temperature yesterday: 61 °F (at 4:00 am)
Average temperature yesterday: 68 °F

High & Low Weather Summary for the Past Weeks

 TemperatureHumidityPressure
High86 °F (Jul 6, 4:00 pm)100% (Jul 11, 2:00 am)30.10 "Hg (Jul 11, 2:00 am)
Low57 °F (Jul 6, 5:00 am)38% (Jul 8, 5:00 pm)29.57 "Hg (Jul 20, 12:33 pm)
Average70 °F77%29.94 "Hg
* Reported Jul 5 11:00 pm — Jul 20 11:00 pm, Oshawa. Weather by CustomWeather, © 2017

Note: Actual official high and low records may vary slightly from our data, if they occured in-between our weather recording intervals... More about our weather records

Advertising

Oshawa Weather History for the Previous 24 Hours

Scroll right to see more
 ConditionsComfort  
Time TempWeatherWind HumidityBarometerVisibility
11:00 pm
Thu, Jul 20
70 °FClear.3 mph78%29.90 "Hg12 mi
10:00 pm70 °FClear.6 mph78%29.90 "Hg15 mi
9:00 pm73 °FPassing clouds.5 mph69%29.89 "Hg15 mi
8:00 pm75 °FPassing clouds.2 mph65%29.89 "Hg15 mi
7:00 pm75 °FScattered clouds.3 mph61%29.88 "Hg15 mi
6:00 pm75 °FPassing clouds.6 mph61%29.90 "Hg15 mi
5:00 pm73 °FScattered clouds.6 mph65%29.92 "Hg15 mi
4:00 pm73 °FScattered clouds.6 mph74%29.93 "Hg15 mi
3:00 pm70 °FBroken clouds.9 mph73%29.94 "Hg15 mi
2:00 pm68 °FPartly sunny.6 mph83%29.94 "Hg15 mi
1:00 pm66 °FBroken clouds.7 mph88%29.97 "Hg12 mi
12:33 pm63 °FScattered showers. Broken clouds.5 mph94%29.57 "Hg15 mi
12:00 pm61 °FSprinkles. More clouds than sun.6 mph94%30.04 "Hg8 mi
11:48 am61 °FThunderstorms. Fog.6 mph94%30.02 "Hg3 mi
11:42 am61 °FStrong thunderstorms. Fog.5 mph94%30.06 "Hg1 mi
11:00 am70 °FThunderstorms. Mostly cloudy.6 mph73%29.98 "Hg10 mi
10:42 am72 °FThunderstorms. Mostly cloudy.6 mph61%29.95 "Hg12 mi
10:00 am72 °FScattered showers. Partly sunny.5 mph65%29.95 "Hg13 mi
9:00 am72 °FPartly sunny.No wind61%29.97 "Hg12 mi
8:00 am66 °FBroken clouds.2 mph68%29.98 "Hg15 mi
7:00 am63 °FPartly sunny.No wind83%29.99 "Hg15 mi
6:00 am61 °FPartly sunny.2 mph83%29.98 "Hg15 mi
5:00 am61 °FPassing clouds.No wind83%29.99 "Hg15 mi
4:00 am61 °FClear.2 mph83%29.98 "Hg15 mi
3:00 am64 °FClear.No wind78%29.99 "Hg15 mi
2:00 am63 °FClear.2 mph88%30.01 "Hg15 mi
1:00 am66 °FClear.5 mph83%30.02 "Hg15 mi
Weather by CustomWeather, © 2017

See weather overviewHow to use our weather pages